Location: Équennes
(49.7375°N, 1.9622°E)
Time: 22:42:51
(UTC+00:00)

BREEZE-M DEB (TANK) - Pass Details

Date: 28 January 2023
Orbit: 428 x 13836 km, 45.9° (Epoch: 28 March)

Event Time Altitude Azimuth Distance (km) Brightness Sun altitude
Rises 17:53:10 0° 248° (WSW) 2,389 7.6 -11.9°
Reaches altitude 10° 17:54:48 10° 241° (WSW) 1,608 6.1 -12.1°
Maximum altitude 17:57:46 49° 164° (SSE) 808 3.1 -12.6°
Enters shadow 18:02:04 16° 94° (E) 2,455 5.0 -13.3°
